Tracking 30995 objects as of 5-Jul-2025
HD Live streaming from Space Station
objects crossing your sky now

IRIDIUM 33 DEB

Track IRIDIUM 33 DEB now!
10-day predictions


NORAD ID: 35052
Int'l Code: 1997-051NY
Perigee: 764.8 km
Apogee: 778.1 km
Inclination: 86.3 °
Period: 100.1 minutes
Semi major axis: 7142 km
RCS: 0.0011 m2 (small)
Launch date: September 14, 1997
Source: United States (US)
Launch site: TYURATAM MISSILE AND SPACE COMPLEX (TTMTR)

Note: This is SATELLITE DEBRIS
Your satellite tracking list
Your tracking list is empty




NASA's NSSDC Master Catalog

Two Line Element Set (TLE):
1 35052U 97051NY  25186.01696460  .00000406  00000-0  12707-3 0  9991
2 35052  86.3296  89.3799 0009293 247.6283 112.3931 14.38232140849651
Source of the keplerian elements: AFSPC